Content
SEND FEEDBACK

Daily
Averages
Monthly
Summary
United States of America

BEDFORD PARK, ILLINOIS


Home > North America > United States > Illinois
Elevation: 623 feet     Latitude: 41 46N     Longitude: 087 45W

WEATHER
 
SELECT A DAY
Number of Records: 191,676;   Date Range: 1/1/95 - 9/29/14
 
SHARE

PRINT THIS DATA

[ ← Previous Day ]
WEATHER ALMANAC - SEPTEMBER 28, 2013
[ Next Day → ]
[ °C ]   °F
Weather ElementAverageHighLow
Temperature72.5 °F84 °F (2:51 pm)57.9 °F (6:51 am)
Dewpoint52.9 °F57.6 °F (12:51 pm)48.9 °F (1:51 am)
Humidity51.9 %75 % (6:51 am)34 % (3:51 pm)
Barometer29.98 in30.09 in (7:51 am)29.89 in (6:51 pm)
Wind Speed11.3 mph19.6 mph (3:51 pm)
Wind Gust31.1 mph (2:51 pm)
Weather ElementAverage
Visibility10 mi
Wind DirectionSSE (173 °)

Weather ElementTotal
Precipitation---
Cooling Degree Days6 (Base 65)
Growing Degree Days21 (Base 50)
Averaged from 23 records on September 28, 2013
WEATHER CONDITIONS BREAKOUT
WIND DIRECTION BREAKOUT
WEATHER BY HOUR - SEPTEMBER 28, 2013
[ °C ]   °F
Local TimeTemperatureDewpointHumidityBarometerVisibilityWind DirectionWind SpeedGust SpeedPrecipitationEventsConditions
1:51 AM64.0 °F48.9 °F58 %30.07 in10.0 miSE (130°)9.2 mphClear
2:51 AM62.1 °F50.0 °F65 %30.05 in10.0 miSE (130°)9.2 mphClear
3:51 AM60.1 °F50.0 °F69 %30.06 in10.0 miSE (140°)8.1 mphClear
4:51 AM59.0 °F50.0 °F72 %30.06 in10.0 miSE (130°)6.9 mphClear
5:51 AM59.0 °F50.0 °F72 %30.06 in10.0 miSSE (150°)8.1 mphPartly Cloudy
6:51 AM57.9 °F50.0 °F75 %30.07 in10.0 miSSE (150°)4.6 mphScattered Clouds
7:51 AM60.1 °F50.0 °F69 %30.09 in10.0 miSSE (150°)5.8 mphScattered Clouds
8:51 AM64.0 °F51.1 °F63 %30.08 in10.0 miSSE (160°)10.4 mphScattered Clouds
9:51 AM69.1 °F53.6 °F58 %30.07 in10.0 miSouth (180°)6.9 mphMostly Cloudy
10:51 AM73.0 °F53.1 °F49 %30.04 in10.0 miSouth (180°)10.4 mphMostly Cloudy
11:51 AM77.0 °F55.0 °F47 %30.01 in10.0 miSouth (180°)10.4 mph19.6 mphMostly Cloudy
12:51 PM80.1 °F57.6 °F46 %29.97 in10.0 miSSW (200°)17.3 mph24.2 mphMostly Cloudy
1:51 PM82.0 °F56.5 °F41 %29.94 in10.0 miSouth (180°)16.1 mph26.5 mphMostly Cloudy
2:51 PM84.0 °F57.2 °F40 %29.93 in10.0 miSouth (170°)18.4 mph31.1 mphMostly Cloudy
3:51 PM82.9 °F52.0 °F34 %29.91 in10.0 miSouth (180°)19.6 mph26.5 mphMostly Cloudy
4:51 PM82.9 °F52.0 °F34 %29.90 in10.0 miSSW (210°)13.8 mph23.0 mphMostly Cloudy
5:51 PM81.0 °F52.0 °F36 %29.90 in10.0 miSouth (190°)13.8 mph25.3 mphMostly Cloudy
6:51 PM80.1 °F53.1 °F39 %29.89 in10.0 miSouth (170°)9.2 mphMostly Cloudy
7:51 PM79.0 °F53.1 °F40 %29.90 in10.0 miSouth (190°)9.2 mph19.6 mphOvercast
8:51 PM79.0 °F55.0 °F44 %29.91 in10.0 miSSW (210°)16.1 mph26.5 mphOvercast
9:51 PM78.1 °F55.0 °F45 %29.90 in10.0 miSouth (190°)11.5 mph20.7 mphOvercast
10:51 PM77.0 °F55.0 °F47 %29.90 in10.0 miSSW (200°)11.5 mph19.6 mphOvercast
11:51 PM75.9 °F55.9 °F50 %29.89 in10.0 miSSW (210°)12.7 mph26.5 mphOvercast
Hourly data recorded from KMDW, located miles away from Bedford Park, Illinois







STORIES FROM OUR PARTNERS